Showing default

DEKART, 46493

Orbit data source: Space-Track

DEKART, 46493 is a payload satellite owned by MGU (CIS) in SSO that was launched on Mon, 28 Sep 2020 UTC via a SOYUZ-2-1B launch vehicle from the Plesetsk Missile And Space Complex (PKMTR). Payload-class satellites include a variety of spacecraft equipped with specific instruments for various scientific and technological missions. These include communications satellites like Starlink; space stations such as the ISS; scientific satellites like the Hubble; Earth observation satellites from companies like Planet Labs, Umbra, and HawkEye 360; GPS; miniature CubeSats for education and research; and military/defense satellites.

Loading next visibility...
Identifier
46493, 2020-068H
Orbit
SSO
Country
Flag of CISCIS
Related business
Manufacturer
MGU
Mission
Operational Amateur Science
Bus & Motor
CUBESAT 3U, Unknown motor
Mass
4 kg wet, 4 kg dry
Launch date (UTC)
2020-09-28 (5 years ago)
Launch vehicle
SOYUZ-2-1B
Launch site
Plesetsk Missile And Space Complex (PKMTR)
Object type
Payload
Rocket body
Debris
Shape & HBR
Box, Unknown HBR
Radar Cross Section
0.035 m², Medium (>0.1 m² and < 1m²)

Expand to show TLE details & history
Last TLE update: 15 hours ago

TLE from 15 hours ago
0 DEKART
1 46493U 20068H   25305.59109054  .00014291  00000-0  48332-3 0  9990
2 46493  97.8711 294.7389 0011371  22.8506 337.3237 15.30685465280875
Epoch: 2025-11-01T14:11Z
TLE epoch observation values (Epoch: 2025-11-01T14:11:10.222Z)
Latitude
-0.00007°
Longitude
40.82734°
Altitude
469.668 km
Speed
7.635 km/s
True Right ascension
19h 38m 57s
True Declination
0° 00' 00"
Sunlit
Object was in daylight at epoch
Visualization orbit readout
Latitude
Unknown
Longitude
Unknown
Altitude
Unknown
Speed
Unknown
Apparent Right ascension
Unknown
Apparent Declination
Unknown
Sunlit
N/A
Visualization observer readout
Local Sidereal Time
01:26:56
Azimuth
Unknown
Elevation
Unknown
Doppler factor
Unknown
Orbital elements
Apogee altitude
478.526 km
Perigee altitude
462.95 km
Semi-major axis
6,848.875 km
Eccentricity
0.00114
Inclination
97.8711°
RAAN
294.7389°
Arg. of periapsis
22.8506°
True anomaly
337.2734°
Mean anomaly
337.3237°
Eccentric anomaly
337.29856°
Mean motion
3.82926 °/min
Orbital period
94.01 mins
BSTAR
0.00048332
Loading maneuver chart data...
Computing Atmospheric mass density...
Loading historical data...
Loading historical data...
Loading historical data...
Loading historical data...
Loading historical data...
Loading historical data...
Loading historical data...

Documentation

Showing up to 5 results
|